Xihe

operational
NORAD ID: 49316 Int'l Des: 2021-091 Owner: NJU/SAST Country: CN
LEOCIRCULARRETROGRADESSO

关于 Xihe

正在加载描述...

实时位置

正在加载3D地球...

即将过境

高度历史

Altitude vs Time

uPlot chart will show altitude changes over time

两行轨道根数

1 49316U 21091B 26061.22511208 .00003208 00000-0 16114-3 0 9991
2 49316 97.4471 250.4548 0014817 56.6968 303.5682 15.17909511242752
Epoch: Mar 2, 2026 • Age: 32 hours

当前状态

高度 506.5 km
速度 7.62 km/s
星下点 14.06°N, 36.84°W
发射日期 Oct 14, 2021
运行时间 4.3 years
类型 other

技术详情

分类 Payload
质量 500.00 kg
干质量 500.00 kg
总质量 500.00 kg
长度 2.00 m
直径 1.00 m
跨度 5.00 m
形状 Box+2 pan
制造商 SAST
平台类型 CHASE
阶段状态 In Orbit
所有者/国家 NJU/SAST/CN

大型星座

Loading constellations...